Location: Malgrate
(45.8500°N, 9.3667°E)
Time: 09:08:49
(UTC+00:00)

Daily predictions for brighter satellites

Satellite Brightness Start Highest point End
(mag) Time Altitude Azimuth Time Altitude Azimuth Time Altitude Azimuth
Meteor 1-19 Rocket 4.5 19:32:27 10° SSW 19:38:07 80° WNW 19:44:00 10° N
STARLINK-1100 3.7 19:36:11 10° WNW 19:40:20 86° SW 19:44:29 10° SE
ISS -3.6 19:37:04 10° WNW 19:40:25 65° SSW 19:43:44 10° SE
COSMOS 2406 4.0 19:36:20 10° NW 19:41:55 52° WSW 19:47:28 10° S
Cosmos 1975 3.5 19:38:34 10° NNW 19:42:33 58° W 19:46:29 10° S
STARLINK-1237 3.7 19:38:46 10° WSW 19:42:55 87° NNW 19:47:05 10° ENE
CZ-2C R/B 2.8 19:37:50 10° NNE 19:43:30 88° ESE 19:49:07 10° SSW
STARLINK-1083 3.7 19:41:11 10° WNW 19:45:20 80° SW 19:49:29 10° SE
Meteor 2-4 Rocket 3.6 19:41:47 10° S 19:47:08 78° E 19:52:31 10° NNE
STARLINK-1202 3.8 19:43:46 10° WSW 19:47:54 82° NNW 19:52:04 10° ENE
NOSS 2-2 (E) 4.3 19:46:01 10° S 19:48:51 22° ESE 19:51:52 10° ENE
EXPRESS MD2 3.5 19:47:11 10° SSW 19:49:47 37° SE 19:54:13 10° ENE
STARLINK-1125 3.7 19:46:11 10° WNW 19:50:20 74° SSW 19:54:27 10° SE
Cosmos 1833 Rocket 3.1 19:47:52 10° NNW 19:53:26 65° WSW 19:58:59 10° SSE
Cosmos 2297 4.3 19:48:34 10° S 19:53:43 37° ESE 19:58:55 10° NE
Cosmos 1943 Rocket 3.7 19:51:03 10° SE 19:54:25 17° E 19:57:49 10° ENE
STARLINK-1109 3.7 19:51:10 10° WNW 19:55:18 69° SW 19:59:18 11° SE
STARLINK-1123 4.5 19:53:26 10° NW 19:57:27 46° NNE 20:01:27 10° E
STARLINK-1246 3.9 19:53:45 10° WSW 19:57:53 72° NNW 20:02:02 10° ENE
IGS 5A 4.2 19:55:35 10° SE 19:59:26 39° ENE 20:03:19 10° N
Cosmos 1420 Rocket 4.3 19:54:53 10° SSW 20:00:04 74° WNW 20:05:17 10° NNE
Cosmos 2082 Rocket 2.3 19:54:22 10° NNW 20:00:09 89° ENE 20:05:51 10° SSE
STARLINK-1091 3.8 19:56:07 10° WNW 20:00:14 63° SW 20:04:04 12° SE
Cosmos 1452 Rocket 3.5 19:55:04 10° SSW 20:00:20 80° ESE 20:05:39 10° NNE
Cosmos 332 Rocket 3.9 19:55:48 10° S 20:00:38 63° ESE 20:05:30 10° NNE
BREEZE-M DEB 3.4 19:59:01 10° S 20:00:50 20° SE 20:03:36 10° E
Landsat 7 4.3 19:57:54 10° SE 20:02:26 46° ENE 20:07:00 10° N
STARLINK-1097 4.4 19:58:26 10° NW 20:02:29 48° NNE 20:06:30 10° E
STARLINK-1224 4.0 19:58:45 10° WSW 20:02:52 68° NNW 20:07:00 10° NE
Intercosmos 24 3.6 19:59:26 10° N 20:03:00 73° E 20:06:52 10° SSE
STARLINK-1072 3.9 20:01:08 10° WNW 20:05:14 58° SW 20:08:52 13° SE
Cosmos 1461 2.9 20:02:56 10° SSW 20:07:00 60° ESE 20:11:17 10° NE
STARLINK-1099 4.3 20:03:25 10° NW 20:07:28 50° NNE 20:11:30 10° E
STARLINK-1225 4.2 20:03:45 10° WSW 20:07:52 63° NNW 20:12:00 10° NE
Okean 3 3.9 20:04:53 10° SSW 20:09:09 66° W 20:13:28 10° N
STARLINK-1096 4.0 20:06:08 10° WNW 20:10:12 54° SW 20:13:39 14° SE
Cosmos 2369 Rocket 3.8 20:07:21 11° SE 20:10:20 16° E 20:13:43 10° ENE
SAR-Lupe-2 4.0 20:08:12 10° NNE 20:11:39 41° E 20:15:04 10° S
STARLINK-1104 4.2 20:08:23 10° NW 20:12:27 53° NNE 20:16:31 10° ESE
STARLINK-1230 4.3 20:08:45 10° WSW 20:12:51 60° NNW 20:16:58 10° NE
NOSS 2-2 (C) 3.8 20:10:10 10° S 20:13:19 31° ESE 20:16:42 10° NE
STARLINK-1079 4.1 20:11:08 10° WNW 20:15:09 49° SW 20:18:26 14° SSE
Cosmos 2221 Rocket 4.2 20:12:35 10° SSW 20:17:03 61° W 20:21:35 10° N
ATLAS 2AS CENTAUR R/B 4.4 20:13:12 12° SE 20:17:16 17° ESE 20:22:04 10° ENE
STARLINK-1144 4.1 20:13:22 10° NW 20:17:27 56° NNE 20:21:27 10° ESE
SL-4 R/B 3.3 20:15:26 10° WNW 20:17:46 21° WSW 20:19:59 10° SSW
STARLINK-1243 4.4 20:13:47 10° WSW 20:17:51 56° NNW 20:21:57 10° NE
SPOT 5 3.9 20:14:18 13° SE 20:18:35 38° ENE 20:23:30 10° N
STARLINK-1116 4.2 20:16:09 10° WNW 20:20:07 45° SW 20:23:13 15° SSE
Meteor 1-13 Rocket 4.3 20:15:01 10° S 20:20:39 85° W 20:26:27 10° N
NOSS 8 (F) 4.4 20:17:25 10° SW 20:20:40 72° NW 20:23:42 10° NE
STARLINK-1103 4.0 20:18:19 10° NW 20:22:26 59° NNE 20:26:14 12° ESE
STARLINK-1236 4.5 20:18:46 10° WSW 20:22:50 53° NNW 20:26:55 10° NE
ERS-1 Rocket 3.5 20:19:40 14° SE 20:23:44 46° ENE 20:28:33 10° N
STARLINK-1101 3.9 20:23:18 10° NW 20:27:26 63° NNE 20:31:00 13° ESE
Cosmos 1066 Rocket 4.2 20:23:02 10° S 20:28:19 60° E 20:33:35 10° NNE
STARLINK-1094 4.5 20:26:10 10° WNW 20:30:01 38° SW 20:32:47 17° SSE
USA 245 2.4 20:27:56 16° SSE 20:30:10 84° WSW 20:32:45 10° NNW
USA 238 DEB 4.3 20:24:53 10° NW 20:31:55 55° NE 20:38:25 13° ESE
USA 238 4.3 20:24:58 10° NW 20:32:01 55° NE 20:38:32 13° ESE
STARLINK-1102 3.8 20:28:17 10° NW 20:32:26 67° NNE 20:35:48 15° ESE
Cosmos 2278 Rocket 3.9 20:28:15 10° WSW 20:33:29 37° NW 20:38:45 10° NNE
TSX-5 4.4 20:27:51 10° SSW 20:33:35 85° WNW 20:37:58 10° NNE
Resurs 01 Rocket 3.0 20:29:37 10° SSW 20:33:43 36° W 20:37:51 10° NNW
Okean 1 Rocket 3.1 20:30:08 10° N 20:34:37 68° E 20:37:54 17° SSE
Nadezhda 4 Rocket 4.0 20:28:43 10° S 20:34:45 64° E 20:40:49 10° NNE
Cosmos 1805 4.0 20:31:08 10° N 20:34:50 39° ENE 20:37:07 20° SE
Okean 2 Rocket 4.4 20:31:06 10° NNW 20:35:12 38° W 20:39:14 10° SSW
Cosmos 1741 Rocket 4.3 20:30:06 10° NNW 20:35:17 65° WSW 20:39:49 13° S
GPS 2-04 Rocket1 4.3 20:33:28 10° SW 20:35:36 15° S 20:35:57 15° S
STARLINK-1111 3.8 20:33:15 10° WNW 20:37:24 72° NNE 20:40:34 17° ESE
STARLINK-1073 3.7 20:38:14 10° WNW 20:42:23 76° NNE 20:45:22 18° ESE
SL-8 R/B 3.7 20:37:35 10° WNW 20:42:25 87° SSW 20:46:16 16° ESE
SL-4 R/B 3.2 20:42:59 10° SSW 20:47:02 28° SE 20:51:10 10° ENE
ATLAS 3B CENTAUR R/B 4.1 20:36:39 10° SW 20:47:06 25° S 20:50:57 18° SSE
Cosmos 1110 Rocket 3.9 20:42:05 10° SSW 20:47:16 81° ESE 20:52:28 10° NNE
STARLINK-1121 3.6 20:43:12 10° WNW 20:47:23 81° NNE 20:50:08 20° ESE
Terra 2.3 20:44:22 20° SE 20:47:24 46° ENE 20:51:58 10° N
Spot 2 Rocket 3.9 20:44:03 12° S 20:48:38 58° W 20:53:38 10° NNW
SPOT 1/Viking Rocket 3.6 20:45:17 16° S 20:49:28 79° WSW 20:54:39 10° NNW
Cosmos 1842 4.4 20:48:51 22° SE 20:50:14 27° E 20:53:34 10° NNE
CARTOSAT-1 3.6 20:47:49 21° SSE 20:50:39 74° ENE 20:54:57 10° N
Abrixas rocket 2.1 20:47:58 10° WNW 20:50:51 55° SSW 20:51:50 34° SE
STARLINK-1106 3.6 20:48:12 10° WNW 20:52:23 87° NE 20:54:56 22° ESE
STARLINK-1112 3.5 20:53:09 10° WNW 20:57:19 88° SW 20:59:42 25° SE
STARLINK-1128 3.5 20:58:08 10° WNW 21:02:17 82° SW 21:04:28 27° SE
Cosmos 1331 Rocket 4.0 20:58:54 10° SSW 21:04:03 82° WNW 21:09:17 10° NNE
Aureole 2 Rocket 4.0 21:02:10 10° SW 21:04:59 30° WNW 21:07:40 10° N
STARLINK-1113 3.6 21:03:08 10° WNW 21:07:16 76° SW 21:09:15 30° SE
Cosmos 1733 3.2 21:04:12 10° N 21:07:59 63° E 21:09:32 33° SSE
COSMOS 2455 4.3 21:09:45 18° ESE 21:10:38 18° ESE 21:14:34 10° ENE
Cosmos 1378 3.3 21:09:41 20° SSW 21:12:07 71° W 21:15:50 10° N
STARLINK-1119 3.6 21:08:08 10° WNW 21:12:16 71° SW 21:14:04 32° SE
Cosmos 1302 Rocket 4.0 21:10:14 18° S 21:14:09 67° ESE 21:19:26 10° NNE
Cosmos 1271 Rocket 4.0 21:14:22 23° ESE 21:14:56 24° E 21:18:07 10° NE
USA 215 4.4 21:09:23 10° E 21:15:23 40° NNE 21:21:23 10° NW
Cosmos 1486 Rocket 4.5 21:10:12 10° NNW 21:15:23 52° ENE 21:18:13 25° SE
Cosmos 1242 Rocket 3.4 21:15:26 31° ESE 21:16:04 33° E 21:19:25 10° NNE
ISS -1.2 21:16:02 10° WSW 21:16:36 10° SW 21:17:02 10° SW
Cosmos 1544 Rocket 4.3 21:12:55 10° N 21:17:00 39° ENE 21:18:39 28° ESE
STARLINK-1114 3.6 21:13:06 10° WNW 21:17:13 65° SW 21:18:49 35° SE
MTI 3.8 21:15:19 10° NNE 21:18:25 57° E 21:18:58 48° SE
STARLINK-60 4.0 21:20:10 30° E 21:20:10 30° E 21:22:08 10° ENE
Lacrosse 5 4.0 21:16:34 10° W 21:19:32 16° WSW 21:22:07 11° SSW
Cosmos 1092 Rocket 3.9 21:15:31 18° S 21:20:16 87° E 21:26:28 10° N
NOSS 2-2 (D) 3.9 21:18:10 10° SW 21:21:41 54° NW 21:25:38 10° NNE
STARLINK-1130 (DARKSAT) 3.7 21:18:06 10° WNW 21:22:12 60° SW 21:23:37 37° SSE
CENTAUR R/B 3.4 21:16:40 10° NW 21:24:36 67° NE 21:31:08 20° SE
Cosmos 1707 4.0 21:24:35 24° E 21:25:02 25° E 21:28:14 10° NE
STARLINK-1084 3.8 21:23:06 10° WNW 21:27:10 55° SW 21:28:24 38° SSE
ATLAS 3B R/B 3.8 21:21:22 10° NNW 21:27:36 38° NE 21:33:57 10° ESE
SL-27 R/B 2.4 21:24:58 10° NNW 21:28:34 74° ENE 21:29:28 47° SE
NOSS 3-2 (C) 4.1 21:22:21 10° NW 21:29:52 76° NE 21:35:37 23° SE
Cosmos 1766 3.8 21:27:04 10° NNW 21:30:57 52° W 21:32:47 28° SSW
Cosmos 1726 4.0 21:29:21 10° NNE 21:32:01 18° ENE 21:32:50 17° E
STARLINK-1098 3.9 21:28:06 10° WNW 21:32:07 51° SW 21:33:11 39° S
Cosmos 1867 4.4 21:29:27 10° NNW 21:34:42 45° NE 21:38:07 20° ESE
STARLINK-1123 4.0 21:33:05 10° WNW 21:37:04 47° SW 21:37:57 40° S
Cosmos 1943 Rocket 2.3 21:31:54 10° SSW 21:37:27 77° WNW 21:43:05 10° NNE
Cosmos 1992 Rocket 4.5 21:36:08 33° SE 21:37:46 42° ESE 21:42:40 10° NE
NOSS 3-4 (A) 3.7 21:36:32 29° SSE 21:38:59 43° ESE 21:44:51 10° NE
NOSS 3-4 (C) 3.7 21:36:40 29° SSE 21:39:05 43° ESE 21:44:57 10° NE
Cosmos 1428 Rocket 4.5 21:36:33 24° S 21:40:34 85° E 21:46:53 10° N
STARLINK-1097 4.1 21:38:07 10° WNW 21:42:03 43° SW 21:42:45 39° SSW
Cosmos 2082 Rocket 4.5 21:40:29 10° WNW 21:43:22 14° W 21:46:16 10° SW
SeaSat 1 3.1 21:39:07 10° NE 21:43:39 36° ESE 21:44:34 33° SE
EO 1 Del DPAF 3.8 21:40:42 10° NNE 21:44:15 37° E 21:44:29 37° ESE
STARLINK-1099 4.2 21:43:07 10° WNW 21:47:00 39° SW 21:47:31 37° SSW
Cosmos 1975 Rocket 3.5 21:44:36 24° SSW 21:47:07 58° WNW 21:51:29 10° N
STARLINK-1212 4.1 21:46:45 10° NW 21:49:43 39° NNE 21:50:47 29° ENE
STARLINK-1105 4.1 21:47:14 10° NW 21:50:12 39° NNE 21:51:13 29° ENE
Cosmos 292 Rocket 3.7 21:48:20 30° SSW 21:50:44 86° ESE 21:55:37 10° NNE
STARLINK-1247 4.0 21:48:06 10° NW 21:51:05 40° NNE 21:52:06 29° ENE
BREEZE-M DEB (TANK) 3.7 21:37:03 10° WSW 21:51:31 78° NNW 21:55:16 10° ENE
STARLINK-1227 4.0 21:48:36 10° NW 21:51:34 40° NNE 21:52:33 30° ENE
Meteor 2-10 4.5 21:47:01 10° N 21:51:53 47° ENE 21:53:43 32° SE
STARLINK-1104 4.3 21:48:07 10° WNW 21:51:57 36° SW 21:52:18 36° SSW
STARLINK-1226 4.0 21:49:27 10° NW 21:52:26 41° NNE 21:53:24 31° ENE
BREEZE-M DEB (TANK) 3.6 21:48:50 10° WNW 21:52:38 54° N 21:56:29 10° E
STARLINK-1215 4.0 21:50:21 10° NW 21:53:21 41° NNE 21:54:16 32° ENE
Cosmos 2369 Rocket 2.3 21:49:04 16° SSW 21:53:38 79° WNW 21:59:19 10° NNE
STARLINK-1217 3.9 21:52:10 10° NW 21:55:10 42° NNE 21:56:01 33° ENE
S3M 4.2 21:49:14 10° N 21:55:21 60° ENE 21:58:11 32° SE
STARLINK-1229 3.9 21:53:03 10° NW 21:56:04 43° NNE 21:56:54 34° ENE
SPOT 5 4.4 21:53:31 18° SSW 21:56:39 33° W 22:01:27 10° NNW
STARLINK-1144 4.5 21:53:09 10° WNW 21:56:54 33° SW 21:57:05 33° SW
STARLINK-1270 3.9 21:53:57 10° NW 21:56:58 43° NNE 21:57:45 35° ENE
STARLINK-1189 3.8 21:55:45 10° NW 21:58:46 45° NNE 21:59:29 37° ENE
Aureole 3 Rocket 4.4 21:52:44 10° N 21:59:05 87° W 22:03:53 29° S
ATLAS CENTAUR R/B 1.9 21:59:35 41° ESE 21:59:35 41° ESE 22:03:29 10° NE
STARLINK-1188 3.8 21:56:39 10° NW 21:59:41 45° NNE 22:00:22 38° ENE
STARLINK-1187 3.5 21:57:45 10° NW 22:00:46 50° NNE 22:01:14 45° ENE
Cosmos 1340 Rocket 3.7 21:57:53 10° N 22:01:43 38° ENE 22:02:31 34° ESE
STARLINK-1191 3.7 21:59:06 10° NW 22:02:07 47° NNE 22:02:40 41° ENE
STARLINK-1221 3.7 22:00:03 10° NW 22:03:04 47° NNE 22:03:34 42° ENE
STARLINK-1222 3.6 22:00:53 10° NW 22:03:55 48° NNE 22:04:23 43° ENE
Cosmos 1025 Rocket 2.9 22:02:58 51° SSE 22:03:57 73° E 22:08:15 10° NNE
Cosmos 2026 Rocket 4.4 22:00:23 20° SSW 22:04:49 60° WNW 22:11:07 10° N
STARLINK-1214 3.6 22:01:47 10° NW 22:04:49 48° NNE 22:05:15 44° NE
Thor Agena Rocket 3.5 21:59:50 10° NNE 22:05:09 74° ESE 22:07:12 38° S
ATLAS 2AS CENTAUR R/B 3.0 22:00:30 16° SSW 22:07:04 74° ESE 22:15:00 10° NE
Cosmos 1656 Rocket 3.6 22:04:49 35° S 22:07:15 70° ESE 22:12:49 10° NNE
BREEZE M DEB (TANK) 3.2 22:04:58 10° W 22:07:57 39° NNW 22:08:33 31° NNE
Cosmos 1553 Rocket 4.0 22:02:33 10° N 22:08:53 82° W 22:11:43 35° S
Cosmos 1953 2.5 22:06:09 10° N 22:10:06 56° ENE 22:10:41 50° ESE
BREEZE-M DEB (TANK) 3.8 21:57:48 10° WNW 22:10:11 79° SSW 22:11:56 37° SE
STARLINK-1228 3.3 22:07:13 10° NW 22:10:43 72° NNE 22:11:08 62° E
NOSS 3-2 (A) 4.5 22:03:45 10° NW 22:11:05 51° WSW 22:15:11 29° S
Cosmos 1470 3.0 22:07:20 10° NNW 22:11:10 59° W 22:11:51 49° SW
APEX 4.4 22:06:47 17° SSW 22:11:49 78° WNW 22:17:12 10° NNE
STARLINK-1235 3.1 22:09:56 10° NW 22:13:10 69° NNE 22:13:12 69° NE
Cosmos 2292 Rocket 3.9 22:13:24 37° E 22:13:24 37° E 22:16:16 10° NNE
Cosmos 968 Rocket 3.6 22:10:49 10° NNW 22:15:55 64° WSW 22:17:31 41° S
Cosmos 1655 Rocket 3.9 22:15:01 36° S 22:17:48 80° E 22:24:05 10° N
Cosmos 1455 Rocket 4.2 22:14:03 10° NNW 22:17:58 33° W 22:19:25 26° SW
SL-4 R/B 3.4 22:20:18 17° NNE 22:20:18 17° NNE 22:21:02 10° N
ATLAS 5 CENTAUR R/B 1.4 22:21:46 69° SSW 22:22:07 81° SE 22:24:29 10° NE
USA 238 4.5 22:16:11 10° NW 22:22:54 42° WSW 22:25:58 29° SSW
Cosmos 1758 3.9 22:20:43 10° NNW 22:24:39 49° W 22:25:25 43° SW
Terra 3.6 22:23:15 16° SW 22:25:22 22° W 22:29:02 10° NW
SL-4 R/B 2.4 22:21:39 10° WSW 22:26:28 80° NNW 22:31:19 10° ENE
Cosmos 2228 3.9 22:23:53 10° N 22:27:48 35° ENE 22:28:36 32° E
STARLINK-1234 3.5 22:27:41 10° WNW 22:30:16 52° WNW 22:30:16 52° WNW
In-Cosmos 22 4.0 22:30:05 46° S 22:31:39 73° E 22:36:56 10° NNE
Cosmos 2266 Rocket 3.9 22:33:43 40° S 22:36:03 81° E 22:42:08 10° N
Cosmos 1503 Rocket 4.2 22:30:50 10° NNW 22:36:05 60° WSW 22:37:35 43° SSW
STARLINK-1209 3.9 22:33:51 10° WNW 22:36:13 42° WNW 22:36:13 42° WNW
STARLINK-1204 4.5 22:37:19 10° NW 22:41:21 48° NNE 22:43:59 20° E
SJ 16-02 4.0 22:41:46 10° NNE 22:43:45 13° NE 22:45:44 10° ENE
STARLINK-1238 4.4 22:42:19 10° NW 22:46:23 51° NNE 22:48:47 22° E
Cosmos 1536 Rocket 4.3 22:45:44 35° WSW 22:46:59 45° WNW 22:51:12 10° N
Cosmos 1674 2.7 22:48:20 64° E 22:48:20 64° E 22:52:02 10° NNE
Meteor 2-15 Rocket 4.4 22:42:28 10° N 22:48:39 76° E 22:50:55 41° SSE
Helios 1B rocket 4.4 22:47:19 10° NE 22:50:05 17° E 22:50:09 17° E
Cosmos 1271 Rocket 4.4 22:49:29 22° WSW 22:50:50 26° WNW 22:54:12 10° NNW
STARLINK-1201 4.3 22:47:17 10° NW 22:51:22 54° NNE 22:53:33 25° E
COSMOS 2455 2.8 22:52:50 32° SW 22:55:49 82° WNW 23:01:54 10° NNE
STARLINK-1206 4.2 22:52:16 10° NW 22:56:22 57° NNE 22:58:21 28° E
Cosmos 883 Rocket 4.4 22:50:37 10° N 22:56:46 78° W 22:58:57 42° S
USA 215 3.3 22:52:57 19° ESE 22:57:57 82° NE 23:04:31 10° NW
Cosmos 2219 4.4 22:53:22 10° NNW 22:58:35 36° NE 23:02:17 17° ESE
Cosmos 1707 4.4 22:59:44 22° W 23:00:50 26° WNW 23:04:08 10° NNW
STARLINK-1205 4.0 22:57:14 10° NW 23:01:21 60° NNE 23:03:07 31° E
Helios 1A 3.0 23:01:35 59° ESE 23:02:11 69° ENE 23:06:22 10° N
Cosmos 2297 Rocket 3.6 22:57:44 10° N 23:02:49 32° NE 23:07:00 14° ESE
Lacrosse 4 Rocket 4.3 23:03:55 10° N 23:06:04 13° NE 23:08:12 10° ENE
STARLINK-1218 3.9 23:02:14 10° NW 23:06:22 64° NNE 23:07:55 35° E
Cosmos 1174 4.3 23:06:36 41° WNW 23:07:02 44° NW 23:10:40 10° NNE
Cosmos 1726 3.3 23:03:58 10° NNW 23:07:18 32° W 23:07:19 32° W
ALOS 2 2.8 23:07:47 53° SW 23:08:19 57° W 23:12:40 10° NNW
Timation 2 Rocket 3.9 23:04:04 10° NNW 23:10:25 82° ENE 23:12:55 38° SE
STARLINK-1369 4.4 23:11:47 36° E 23:11:47 36° E 23:14:15 10° ENE
Cosmos 2058 Rocket 3.5 23:06:46 10° N 23:11:08 54° ENE 23:11:58 46° ESE
COSMOS 2487 3.8 23:08:01 10° NW 23:10:32 30° W 23:10:32 30° W
STARLINK-1254 3.8 23:07:12 10° NW 23:11:21 68° NNE 23:12:41 40° E
STARLINK-1372 4.2 23:15:07 40° E 23:15:07 40° E 23:17:45 10° ENE
CENTAUR R/B 3.9 23:07:46 10° NW 23:15:13 39° WSW 23:18:17 30° SSW
Meteor 2-5 Rocket 3.6 23:14:12 48° S 23:15:48 78° E 23:21:27 10° NNE
STARLINK-1231 3.7 23:12:10 10° WNW 23:16:19 73° NNE 23:17:27 46° E
STARLINK-1378 4.1 23:18:28 44° E 23:18:28 44° E 23:21:16 10° ENE
Cosmos 1867 4.3 23:13:17 10° NW 23:18:11 35° WSW 23:18:45 34° SW
ATLAS 3B R/B 2.8 23:11:57 10° NW 23:18:40 62° WSW 23:21:09 40° S
SL-14 R/B 3.6 23:19:11 51° E 23:19:11 51° E 23:22:54 10° NNE
FALCON 9 DEB 3.5 23:20:08 61° NNW 23:20:09 61° NNW 23:23:34 10° NE
STARLINK-1379 3.9 23:21:51 49° E 23:21:51 49° E 23:24:47 10° ENE
SeaSat 1 3.7 23:16:39 10° NNE 23:21:09 37° NW 23:24:20 17° WSW
Cosmos 1606 Rocket 3.6 23:16:53 10° NNW 23:21:10 61° W 23:21:36 57° SW
STARLINK-1232 3.6 23:17:10 10° WNW 23:21:19 78° NNE 23:22:15 52° ESE
STARLINK-1329 3.8 23:23:14 51° E 23:23:14 51° E 23:26:15 10° ENE
Meteor 2-21 4.4 23:20:59 43° S 23:23:07 77° E 23:29:20 10° NNE
Cosmos 2098 Rocket 4.5 23:20:07 35° SSW 23:23:27 71° W 23:30:57 10° N
STARLINK-29 4.4 23:24:02 28° WNW 23:25:06 37° NNW 23:28:08 10° NE
STARLINK-1362 3.7 23:26:40 57° E 23:26:40 57° E 23:29:50 10° ENE
STARLINK-1208 3.6 23:22:07 10° WNW 23:26:17 83° NNE 23:27:00 59° ESE
ATLAS CENTAUR R/B 2.9 23:26:31 10° NNW 23:28:39 30° NE 23:32:25 10° ESE
STARLINK-1373 3.5 23:30:05 64° E 23:30:05 64° E 23:33:25 10° ENE
NOSS 3-4 (A) 4.5 23:24:10 10° WSW 23:29:52 43° NW 23:36:00 10° NNE
NOSS 3-4 (C) 4.4 23:24:14 10° WSW 23:29:57 43° NW 23:36:06 10° NNE
RESURS DK-1 2.5 23:29:48 56° WSW 23:30:25 66° WNW 23:34:34 10° NNE
STARLINK-1365 3.4 23:31:12 71° E 23:31:12 71° E 23:34:41 10° ENE
STARLINK-1271 3.5 23:27:08 10° WNW 23:31:18 88° NE 23:31:49 67° ESE
STARLINK-1390 3.4 23:33:34 71° E 23:33:34 71° E 23:37:03 10° ENE
Cosmos 1697 Rocket 4.3 23:32:47 19° ESE 23:34:11 21° E 23:38:17 10° NE
Cosmos 2084 3.6 23:33:36 54° WSW 23:34:33 77° NW 23:39:03 10° NE
Cosmos 2315 Rocket 4.4 23:28:53 10° NNW 23:34:50 50° W 23:36:58 36° SW
Cosmos 1626 2.0 23:36:00 85° NE 23:36:00 85° NE 23:39:41 10° N
STARLINK-1154 3.5 23:32:06 10° WNW 23:36:16 86° SSW 23:36:35 75° SE
BREEZE-M R/B 3.4 23:31:45 22° SW 23:36:18 68° SSE 23:40:07 10° ENE
Okean 1-7 Rocket 3.5 23:37:39 63° SSW 23:38:22 83° W 23:42:55 10° N
ATLAS CENTAUR R/B 3.2 23:35:42 15° W 23:38:33 28° NW 23:42:07 10° NNE
Cosmos 2227 Rocket 2.9 23:34:22 10° NNW 23:39:55 50° ENE 23:43:30 21° SE
STARLINK-1197 3.4 23:37:04 10° WNW 23:41:13 80° SW 23:41:21 79° S
Nadezhda 2 Rocket 4.5 23:39:44 40° SSW 23:41:59 71° W 23:48:09 10° N
CZ-4 R/B 3.8 23:38:09 10° NNE 23:42:55 69° ESE 23:43:50 54° SSE
STARLINK-1198 3.4 23:42:02 10° WNW 23:46:07 74° SW 23:46:07 74° SW
Cosmos 1602 Rocket 4.3 23:47:23 37° ESE 23:48:06 40° E 23:52:10 10° NNE
Landsat 4 4.2 23:47:08 10° N 23:50:42 46° WNW 23:51:00 44° W
STARLINK-1199 3.5 23:47:03 10° WNW 23:50:55 67° WSW 23:50:55 67° WSW
Meteor 2-21 Rocket 4.4 23:50:06 42° SSW 23:52:22 84° W 23:58:37 10° N
